#timestamp,LO_Frequency,Hit 
1500656415.6,286047007.0,N
1500656435.4,286047006.8,N
1500656455.3,286047006.6,N
1500656475.1,286047008.7,N
1500656495.8,286047006.4,N
1500656515.7,286047008.8,N
1500656535.5,286047008.1,N
1500656555.4,286047012.4,Y
1500656575.2,286047005.8,N
1500656595.0,286047005.4,N
1500656595.9,286047005.4,N
1500656615.8,286047006.0,N
1500656635.6,286047005.3,N
1500656655.4,286047005.8,N
1500656675.3,286047006.7,N
1500656695.1,286047006.4,N
1500656715.9,286047006.2,N
1500656735.7,286047006.8,N
1500656755.5,286047007.4,N
1500656775.4,286047007.6,N
1500656795.2,286047007.4,N
1500656815.0,286047004.7,N
1500656815.9,286047004.7,N
1500656835.8,286047007.1,Y
1500656855.6,286047000.0,N
1500656875.5,286046998.2,N
1500656895.3,286046998.2,N
1500656915.1,286046998.1,N
1500656935.9,286046999.0,N
1500656955.7,286046999.3,N
1500656975.5,286046998.3,N
1500656995.4,286047001.2,N
1500657015.2,286047000.6,N
1500657035.1,286047000.9,N
1500657036.0,286047000.9,N
1500657055.8,286047000.2,N
1500657075.6,286046998.1,N
1500657095.5,286047000.1,N
1500657115.3,286047001.3,N
1500657135.1,286047004.3,N
1500657155.9,286047001.3,N
1500657175.7,286047002.1,N
1500657225.6,286047002.6,Y
1500657235.5,286047000.1,N
1500657255.3,286047000.3,N
1500657275.2,286047001.0,N
1500657295.0,286047000.9,N
1500657295.9,286047000.9,N
1500657315.8,286047000.9,N
1500657335.6,286047002.7,N
1500657355.4,286047002.7,N
1500657375.3,286047002.6,N
1500657395.1,286047002.8,N
1500657415.9,286047001.6,N
1500657435.7,286047000.1,N
1500657455.5,286047000.2,N
1500657475.4,286047000.1,N
1500657495.2,286046999.9,N
1500657515.0,286047004.0,N
1500657515.9,286047004.0,N
1500657535.8,286047004.0,N
1500657555.6,286047003.6,N
1500657575.5,286047001.4,N
1500657595.3,286047004.3,N
1500657615.1,286047003.9,N
1500657635.9,286047003.9,N
1500657655.7,286047005.9,N
1500657675.5,286047004.2,N
1500657695.4,286047005.8,N
1500657715.2,286047005.6,N
1500657735.1,286047003.4,N
1500657736.0,286047003.4,N
1500657755.8,286047007.6,Y
1500657775.6,286047003.3,N
1500657795.5,286047004.1,N
1500657815.3,286047005.5,N
1500657835.1,286047004.8,N
1500657855.9,286047005.3,N
1500657875.7,286047003.0,N
1500657895.6,286047005.6,N
1500657915.4,286047002.9,N
1500657935.2,286047003.8,N
1500657955.1,286047003.4,N
1500657956.0,286047003.4,N
1500657975.8,286047003.7,N
1500657995.6,286047006.0,Y
1500658015.5,286047002.0,N
1500658035.3,286047003.2,N
1500658055.2,286047003.4,N
1500658075.9,286047003.6,N
1500658095.7,286047003.8,N
1500658115.6,286047002.1,N
1500658135.4,286047002.8,N
1500658155.2,286047001.6,N
1500658175.1,286047002.1,N
1500658176.0,286047002.1,N
1500658195.8,286047001.7,N
1500658215.7,286047004.4,N
1500658235.5,286047003.1,N
1500658255.3,286047003.1,N
1500658275.2,286047002.2,N
1500658295.0,286047001.5,N
1500658295.9,286047001.5,N
1500658315.8,286047004.2,N
1500658335.6,286047001.8,N
1500658355.4,286047004.0,N
1500658375.3,286047004.0,N
1500658395.1,286047005.0,Y
1500658415.9,286047002.0,N
1500658435.7,286046999.7,N
1500658455.5,286047002.5,N
1500658475.4,286047002.0,N
1500658495.2,286047000.1,N
1500658515.0,286047002.7,N
1500658516.0,286047002.7,N
1500658535.8,286047000.1,N
1500658555.6,286047001.5,N
1500658575.5,286047001.4,N
1500658595.3,286047003.1,N
1500658615.1,286047002.1,N
1500658635.9,286047002.1,N
1500658655.7,286047001.8,N
1500658675.5,286047001.9,N
1500658695.4,286047001.5,N
1500658715.2,286047003.9,N
1500658735.1,286047005.7,Y
1500658736.0,286047005.7,Y
1500658755.8,286046999.6,N
1500658775.6,286046997.6,N
1500658795.5,286046995.6,N
1500658815.3,286046997.8,N
1500658835.2,286046997.6,N
1500658855.9,286046996.9,N
1500658875.7,286046997.5,N
1500658895.6,286046997.0,N
1500658915.4,286046999.3,N
1500658935.2,286046999.1,N
1500658955.1,286046999.3,N
1500658956.0,286046999.3,N
1500658975.8,286046998.9,N
1500658995.7,286047000.8,N
1500659015.5,286047002.4,N
1500659035.3,286047001.0,N
1500659055.2,286047001.2,N
1500659075.0,286046999.4,N
1500659075.9,286046999.4,N
1500659095.7,286046998.1,N
1500659115.6,286047000.5,N
1500659135.4,286047001.1,N
1500659155.3,286046998.3,N
1500659175.1,286047002.8,N
1500659176.0,286047002.8,N
1500659195.8,286047001.0,N
1500659215.7,286046998.9,N
1500659235.5,286046998.8,N
1500659255.3,286047000.8,N
1500659275.2,286047002.8,N
1500659295.0,286047001.2,N
1500659295.9,286047001.2,N
1500659315.8,286047001.1,N
1500659335.6,286046998.4,N
1500659355.4,286046998.4,N
1500659375.3,286046999.9,N
1500659395.1,286046999.1,N
1500659415.8,286046999.0,N
1500659435.7,286046998.3,N
1500659455.5,286047000.7,N
1500659475.4,286047000.8,N
1500659495.2,286047002.5,N
1500659515.0,286047001.3,N
1500659515.9,286047001.3,N
1500659535.8,286047004.3,N
1500659555.6,286047001.4,N
1500659575.4,286047004.4,N
1500659595.3,286047001.4,N
1500659615.1,286047006.8,Y
1500659635.9,286047012.4,Y
1500659655.7,286047011.1,Y
1500659675.6,286047010.5,Y
1500659695.4,286047004.9,N
1500659715.2,286047003.9,N
1500659735.1,286047007.2,N
1500659736.0,286047007.2,N
1500659755.8,286047011.9,Y
1500659775.6,286047014.0,Y
1500659795.5,286047012.6,Y
1500659815.3,286047011.8,N
1500659835.2,286047009.3,N
1500659855.9,286047011.8,N
1500659875.7,286047011.8,N
1500659895.6,286047011.1,N
1500659915.4,286047015.0,Y
1500659935.3,286047017.7,Y
1500659955.1,286047023.7,Y
1500659956.0,286047023.7,Y
1500659975.8,286047023.3,Y
1500659995.7,286047016.1,N
